Alma, MI

6:42 AM EDT on July 19, 2019 (GMT -0400)
Gratiot Community

Weather History for KAMN - May, 2019

Change the Weather History Date:

Thursday, May 9, 2019

  Actual Average Record
Temperature  
Mean Temperature 59 °F -  
Max Temperature 73 °F 67 °F 85 °F (1953)
Min Temperature 45 °F 42 °F 25 °F (2017)
Degree Days  
Heating Degree Days 6    
Growing Degree Days 9 (Base 50)    
Moisture  
Dew Point 48 °F    
Average Humidity 72    
Maximum Humidity 93    
Minimum Humidity 41    
Precipitation  
Precipitation 0.00 in - - ()
Sea Level Pressure  
Sea Level Pressure 29.77 in    
Wind  
Wind Speed 9 mph (SW)    
Max Wind Speed 20 mph    
Max Gust Speed 26 mph    
Visibility 9 miles    
Events Rain    
Averages and records for this station are not official NWS values.
T = Trace of Precipitation, MM = Missing Value Source: NWS Daily Summary

Daily Weather History Graph

Daily Weather History Graph

Search for Another Location

Airport or City:

Astronomy

May. 09, 2019 Rise Set
Actual Time 6:21 AM EDT 8:49 PM EDT
Civil Twilight 5:49 AM EDT 9:21 PM EDT
Nautical Twilight 5:09 AM EDT 10:01 PM EDT
Astronomical Twilight 4:24 AM EDT 10:47 PM EDT
Moon 10:13 AM EDT (5/9) 12:50 AM EDT (5/9)
Length of Visible Light 15h 32m
Length of Day
14h 27m
Waxing Crescent, 24% of the Moon is Illuminated
May 9
Waxing Crescent
May 11
First Quarter
May 18
Full
May 26
Last Quarter
Jun 3
New

Hourly Weather History & Observations

Time (EDT) Temp. Windchill Dew Point Humidity Pressure Visibility Wind Dir Wind Speed Gust Speed Precip Events Conditions
12:15 AM 51.4 °F - 30.7 °F 45% 29.97 in 10.0 mi East 12.7 mph - N/A   Mostly Cloudy
12:35 AM 51.6 °F - 29.7 °F 43% 29.96 in 10.0 mi East 9.2 mph 16.1 mph N/A   Scattered Clouds
12:55 AM 52.0 °F - 29.5 °F 42% 29.95 in 10.0 mi East 8.1 mph - N/A   Scattered Clouds
12:56 AM 52.0 °F - 29.7 °F 42% 29.95 in 10.0 mi East 8.1 mph - N/A   Scattered Clouds
1:15 AM 52.2 °F - 29.1 °F 41% 29.94 in 10.0 mi East 9.2 mph - N/A   Scattered Clouds
1:16 AM 52.2 °F - 29.3 °F 41% 29.94 in 10.0 mi East 8.1 mph - N/A   Scattered Clouds
1:35 AM 51.8 °F - 30.0 °F 43% 29.91 in 10.0 mi East 10.4 mph - N/A   Scattered Clouds
1:55 AM 51.8 °F - 30.9 °F 45% 29.91 in 10.0 mi East 9.2 mph - N/A   Scattered Clouds
2:15 AM 52.2 °F - 31.3 °F 45% 29.89 in 10.0 mi East 6.9 mph - N/A   Scattered Clouds
2:35 AM 52.2 °F - 32.0 °F 46% 29.88 in 10.0 mi East 8.1 mph - N/A   Scattered Clouds
2:55 AM 52.7 °F - 32.0 °F 45% 29.86 in 10.0 mi ESE 6.9 mph - N/A   Scattered Clouds
3:15 AM 52.7 °F - 32.7 °F 47% 29.85 in 10.0 mi East 11.5 mph - N/A   Scattered Clouds
3:35 AM 52.7 °F - 33.3 °F 48% 29.85 in 10.0 mi ESE 6.9 mph - N/A   Mostly Cloudy
3:55 AM 52.7 °F - 34.2 °F 49% 29.83 in 10.0 mi ESE 5.8 mph - N/A   Mostly Cloudy
3:56 AM 52.7 °F - 34.3 °F 50% 29.83 in 10.0 mi ESE 5.8 mph - N/A   Mostly Cloudy
4:15 AM 52.7 °F - 35.1 °F 51% 29.81 in 10.0 mi ESE 6.9 mph - N/A   Scattered Clouds
4:16 AM 52.7 °F - 34.9 °F 51% 29.81 in 10.0 mi East 6.9 mph - N/A   Scattered Clouds
4:35 AM 52.9 °F - 36.0 °F 53% 29.81 in 10.0 mi ESE 5.8 mph - N/A   Scattered Clouds
4:36 AM 52.9 °F - 36.0 °F 53% 29.81 in 10.0 mi ESE 4.6 mph - N/A   Scattered Clouds
4:55 AM 52.9 °F - 37.0 °F 55% 29.81 in 10.0 mi NNW 8.1 mph - N/A   Mostly Cloudy
4:56 AM 52.9 °F - 37.2 °F 55% 29.81 in 10.0 mi NNW 8.1 mph - N/A   Mostly Cloudy
5:15 AM 52.3 °F - 37.2 °F 56% 29.80 in 10.0 mi NNE 4.6 mph - N/A   Mostly Cloudy
5:35 AM 52.7 °F - 36.5 °F 54% 29.81 in 10.0 mi NW 9.2 mph - N/A   Overcast
5:55 AM 50.7 °F - 37.0 °F 59% 29.85 in 5.0 mi NNW 10.4 mph - N/A Rain Heavy Rain
6:15 AM 47.5 °F - 40.6 °F 77% 29.84 in 7.0 mi NNW 8.1 mph - N/A Rain Rain
6:35 AM 46.4 °F 44.3 °F 40.8 °F 81% 29.83 in 1.5 mi NE 4.6 mph - N/A   Unknown
6:36 AM 46.2 °F 44.1 °F 40.8 °F 81% 29.83 in 1.5 mi NE 4.6 mph - N/A   Unknown
6:55 AM 45.7 °F 40.6 °F 41.9 °F 87% 29.80 in 7.0 mi NE 10.4 mph - N/A Rain Light Rain
6:56 AM 45.7 °F 40.6 °F 41.9 °F 87% 29.79 in 7.0 mi NE 10.4 mph - N/A Rain Light Rain
7:15 AM 46.0 °F 41.0 °F 42.8 °F 88% 29.78 in 10.0 mi ENE 10.4 mph - N/A Rain Light Rain
7:16 AM 46.0 °F 41.0 °F 42.8 °F 88% 29.78 in 10.0 mi ENE 10.4 mph - N/A Rain Light Rain
7:35 AM 46.6 °F - 43.7 °F 90% 29.78 in 10.0 mi ENE 6.9 mph - N/A   Overcast
7:36 AM 46.6 °F - 43.7 °F 90% 29.78 in 10.0 mi ENE 5.8 mph - N/A   Overcast
7:55 AM 46.8 °F - 43.7 °F 89% 29.76 in 10.0 mi ENE 9.2 mph - N/A   Overcast
8:15 AM 47.7 °F - 44.8 °F 90% 29.76 in 10.0 mi East 9.2 mph - N/A   Overcast
8:35 AM 48.2 °F - 45.1 °F 89% 29.75 in 10.0 mi East 6.9 mph - N/A Rain Light Rain
8:55 AM 48.6 °F - 45.9 °F 90% 29.73 in 10.0 mi East 10.4 mph - N/A Rain Light Rain
9:15 AM 49.1 °F - 46.4 °F 90% 29.71 in 7.0 mi East 11.5 mph - N/A Rain Light Rain
9:16 AM 49.1 °F - 46.6 °F 91% 29.70 in 7.0 mi East 12.7 mph - N/A Rain Light Rain
9:35 AM 49.3 °F - 46.9 °F 92% 29.69 in 7.0 mi East 11.5 mph - N/A Rain Light Rain
9:36 AM 49.3 °F - 46.9 °F 92% 29.69 in 7.0 mi East 10.4 mph - N/A Rain Light Rain
9:55 AM 49.6 °F - 47.3 °F 92% 29.70 in 3.0 mi NE 4.6 mph - N/A Rain Heavy Rain
9:56 AM 49.6 °F - 47.3 °F 92% 29.70 in 3.0 mi NE 4.6 mph - N/A Rain Heavy Rain
10:15 AM 49.6 °F - 47.5 °F 92% 29.70 in 0.8 mi ENE 5.8 mph - N/A   Unknown
10:16 AM 49.6 °F - 47.5 °F 92% 29.70 in 0.8 mi ENE 4.6 mph - N/A   Unknown
10:35 AM 50.5 °F - 48.6 °F 93% 29.68 in 7.0 mi East 8.1 mph - N/A Rain Light Rain
10:55 AM 51.4 °F - 49.3 °F 92% 29.69 in 7.0 mi Calm Calm - N/A Rain Rain
10:56 AM 51.4 °F - 49.3 °F 92% 29.69 in 7.0 mi Calm Calm - N/A Rain Rain
11:15 AM 52.2 °F - 50.0 °F 92% 29.68 in 5.0 mi East 3.5 mph - N/A Rain Rain
11:35 AM 53.8 °F - 51.8 °F 93% 29.68 in 5.0 mi Calm Calm - N/A   Overcast
11:36 AM 53.8 °F - 51.8 °F 93% 29.68 in 5.0 mi Calm Calm - N/A   Overcast
11:55 AM 55.6 °F - 53.4 °F 92% 29.69 in 7.0 mi Calm Calm - N/A   Overcast
12:15 PM 57.2 °F - 54.7 °F 91% 29.69 in 7.0 mi SW 3.5 mph - N/A   Overcast
12:35 PM 59.4 °F - 57.0 °F 92% 29.69 in 7.0 mi SW 8.1 mph - N/A   Overcast
12:55 PM 61.5 °F - 58.5 °F 90% 29.69 in 7.0 mi SW 4.6 mph - N/A   Overcast
1:15 PM 63.5 °F - 60.1 °F 89% 29.69 in 7.0 mi WSW 8.1 mph - N/A   Overcast
1:16 PM 63.5 °F - 60.1 °F 89% 29.69 in 7.0 mi WSW 8.1 mph - N/A   Overcast
1:35 PM 64.9 °F - 61.0 °F 87% 29.70 in 7.0 mi WSW 10.4 mph - N/A   Overcast
1:36 PM 64.9 °F - 61.0 °F 87% 29.70 in 7.0 mi WSW 6.9 mph - N/A   Overcast
1:55 PM 67.5 °F - 62.6 °F 84% 29.70 in 7.0 mi SW 9.2 mph 16.1 mph N/A   Overcast
1:56 PM 67.6 °F - 62.6 °F 84% 29.70 in 7.0 mi SW 10.4 mph 16.1 mph N/A   Overcast
2:15 PM 68.5 °F - 63.5 °F 84% 29.70 in 7.0 mi WSW 6.9 mph - N/A   Overcast
2:16 PM 68.7 °F - 63.7 °F 84% 29.70 in 7.0 mi WSW 8.1 mph - N/A   Overcast
2:35 PM 70.3 °F - 64.0 °F 80% 29.70 in 10.0 mi SW 9.2 mph - N/A   Overcast
2:36 PM 70.5 °F - 64.2 °F 80% 29.70 in 10.0 mi SW 9.2 mph 16.1 mph N/A   Overcast
2:55 PM 72.0 °F - 63.5 °F 75% 29.71 in 10.0 mi WSW 12.7 mph 18.4 mph N/A   Overcast
3:15 PM 72.0 °F - 62.4 °F 72% 29.70 in 10.0 mi WSW 15.0 mph 19.6 mph N/A   Overcast
3:35 PM 72.0 °F - 61.9 °F 70% 29.70 in 10.0 mi WSW 12.7 mph 19.6 mph N/A   Overcast
3:55 PM 72.5 °F - 61.2 °F 67% 29.70 in 10.0 mi SW 10.4 mph 16.1 mph N/A   Overcast
4:15 PM 72.9 °F - 60.8 °F 66% 29.70 in 10.0 mi WSW 15.0 mph 20.7 mph N/A   Overcast
4:35 PM 73.0 °F - 60.3 °F 64% 29.70 in 10.0 mi SW 12.7 mph 21.9 mph N/A   Overcast
4:55 PM 73.4 °F - 60.3 °F 63% 29.70 in 10.0 mi WSW 12.7 mph 19.6 mph N/A   Overcast
5:15 PM 73.6 °F - 59.7 °F 62% 29.69 in 10.0 mi SW 12.7 mph 20.7 mph N/A   Overcast
5:16 PM 73.4 °F - 59.7 °F 62% 29.69 in 10.0 mi SW 12.7 mph 20.7 mph N/A   Overcast
5:35 PM 72.9 °F - 59.9 °F 64% 29.70 in 10.0 mi WSW 12.7 mph 19.6 mph N/A   Overcast
5:36 PM 72.7 °F - 59.9 °F 64% 29.70 in 10.0 mi WSW 13.8 mph 19.6 mph N/A   Overcast
5:55 PM 72.0 °F - 59.2 °F 64% 29.71 in 10.0 mi WSW 17.3 mph 26.5 mph N/A   Overcast
5:56 PM 71.8 °F - 59.2 °F 64% 29.71 in 10.0 mi West 18.4 mph 26.5 mph N/A   Overcast
6:15 PM 70.9 °F - 58.3 °F 64% 29.71 in 10.0 mi WSW 15.0 mph 20.7 mph N/A   Overcast
6:16 PM 70.9 °F - 58.3 °F 64% 29.71 in 10.0 mi WSW 13.8 mph 20.7 mph N/A   Overcast
6:35 PM 70.0 °F - 57.9 °F 65% 29.72 in 10.0 mi WSW 12.7 mph 17.3 mph N/A   Overcast
6:55 PM 68.9 °F - 56.7 °F 65% 29.72 in 10.0 mi WSW 12.7 mph 23.0 mph N/A   Mostly Cloudy
7:15 PM 67.8 °F - 55.4 °F 64% 29.74 in 10.0 mi WSW 19.6 mph 24.2 mph N/A   Mostly Cloudy
7:35 PM 66.4 °F - 55.4 °F 68% 29.74 in 10.0 mi WSW 10.4 mph 21.9 mph N/A   Mostly Cloudy
7:55 PM 64.9 °F - 54.7 °F 69% 29.76 in 10.0 mi WSW 10.4 mph 20.7 mph N/A   Scattered Clouds
8:15 PM 63.3 °F - 53.1 °F 69% 29.76 in 10.0 mi WSW 13.8 mph 21.9 mph N/A   Mostly Cloudy
8:35 PM 62.1 °F - 52.3 °F 70% 29.77 in 10.0 mi WSW 13.8 mph 21.9 mph N/A   Mostly Cloudy
8:55 PM 60.1 °F - 51.1 °F 72% 29.77 in 10.0 mi West 16.1 mph - N/A   Scattered Clouds
8:56 PM 59.9 °F - 50.9 °F 72% 29.77 in 10.0 mi West 15.0 mph - N/A   Scattered Clouds
9:15 PM 58.8 °F - 49.5 °F 71% 29.78 in 10.0 mi West 11.5 mph 19.6 mph N/A   Clear
9:16 PM 58.6 °F - 49.5 °F 72% 29.78 in 10.0 mi WSW 12.7 mph 19.6 mph N/A   Clear
9:35 PM 57.2 °F - 49.1 °F 74% 29.79 in 10.0 mi West 8.1 mph - N/A   Clear
9:36 PM 57.2 °F - 49.1 °F 74% 29.79 in 10.0 mi West 8.1 mph - N/A   Clear
9:55 PM 56.3 °F - 48.2 °F 74% 29.80 in 10.0 mi WSW 12.7 mph 16.1 mph N/A   Clear
9:56 PM 56.3 °F - 48.2 °F 74% 29.80 in 10.0 mi WSW 11.5 mph 16.1 mph N/A   Clear
10:15 PM 55.8 °F - 47.5 °F 74% 29.81 in 10.0 mi WSW 11.5 mph - N/A   Clear
10:35 PM 55.0 °F - 46.8 °F 74% 29.81 in 10.0 mi WSW 11.5 mph 18.4 mph N/A   Clear
10:36 PM 55.0 °F - 46.8 °F 74% 29.81 in 10.0 mi WSW 12.7 mph 18.4 mph N/A   Clear
10:55 PM 54.5 °F - 46.4 °F 74% 29.82 in 10.0 mi WSW 9.2 mph - N/A   Clear
11:15 PM 53.8 °F - 46.0 °F 75% 29.81 in 10.0 mi WSW 8.1 mph - N/A   Clear
11:35 PM 52.7 °F - 45.9 °F 78% 29.82 in 10.0 mi WSW 5.8 mph - N/A   Clear
11:55 PM 52.7 °F - 46.4 °F 79% 29.82 in 10.0 mi WSW 5.8 mph - N/A   Mostly Cloudy